Beverly, MA

2:46 PM EST on January 20, 2018 (GMT -0500)
Beverly Municipal

Weather History for KBVY - November, 2013

Change the Weather History Date:

Monday, November 11, 2013

  Actual Average Record
Temperature  
Mean Temperature 45 °F -  
Max Temperature 51 °F 48 °F 69 °F (2002)
Min Temperature 39 °F 33 °F 14 °F (1995)
Degree Days  
Heating Degree Days 20    
Moisture  
Dew Point 25 °F    
Average Humidity 46    
Maximum Humidity 62    
Minimum Humidity 31    
Precipitation  
Precipitation 0.00 in - - ()
Sea Level Pressure  
Sea Level Pressure 29.96 in    
Wind  
Wind Speed 11 mph (West)    
Max Wind Speed 16 mph    
Max Gust Speed 24 mph    
Visibility 10 miles    
Events      
Averages and records for this station are not official NWS values.
T = Trace of Precipitation, MM = Missing Value Source: NWS Daily Summary

Daily Weather History Graph

Daily Weather History Graph

Search for Another Location

Airport or City:

Trip Planner

Search our weather history database for the weather conditions in past years. The results will help you decide how hot, cold, wet, or windy it might be!

Date:

Astronomy

Nov. 11, 2013 Rise Set
Actual Time 6:30 AM EST 4:24 PM EST
Civil Twilight 6:00 AM EST 4:54 PM EST
Nautical Twilight 5:26 AM EST 5:28 PM EST
Astronomical Twilight 4:53 AM EST 6:01 PM EST
Moon 1:10 PM EST (11/11) 12:04 AM EST (11/11)
Length of Visible Light 10h 54m
Length of Day
9h 54m
Waxing Gibbous, 66% of the Moon is Illuminated
Nov 11
Waxing Gibbous
Nov 17
Full
Nov 25
Last Quarter
Dec 2
New
Dec 9
First Quarter

Hourly Weather History & Observations

Time (EST) Temp. Windchill Dew Point Humidity Pressure Visibility Wind Dir Wind Speed Gust Speed Precip Events Conditions
12:53 AM 43.0 °F 35.4 °F 30.0 °F 60% 29.83 in 10.0 mi West 16.1 mph 24.2 mph N/A   Clear
1:53 AM 41.0 °F 36.4 °F 28.9 °F 62% 29.87 in 10.0 mi West 6.9 mph - N/A   Clear
2:53 AM 42.1 °F 35.2 °F 26.1 °F 53% 29.89 in 10.0 mi NW 12.7 mph 21.9 mph N/A   Clear
3:53 AM 41.0 °F 32.8 °F 25.0 °F 53% 29.91 in 10.0 mi WNW 16.1 mph 21.9 mph N/A   Clear
4:53 AM 39.9 °F 32.5 °F 25.0 °F 55% 29.94 in 10.0 mi WNW 12.7 mph - N/A   Clear
5:53 AM 39.9 °F 33.9 °F 25.0 °F 55% 29.99 in 10.0 mi WNW 9.2 mph 19.6 mph N/A   Mostly Cloudy
6:53 AM 39.0 °F 32.8 °F 25.0 °F 57% 30.01 in 10.0 mi WNW 9.2 mph - N/A   Partly Cloudy
7:53 AM 41.0 °F 34.3 °F 25.0 °F 53% 30.05 in 10.0 mi West 11.5 mph 19.6 mph N/A   Scattered Clouds
8:53 AM 42.1 °F 34.9 °F 24.1 °F 49% 30.07 in 10.0 mi WNW 13.8 mph 23.0 mph N/A   Partly Cloudy
9:53 AM 45.0 °F 39.7 °F 25.0 °F 46% 30.07 in 10.0 mi West 10.4 mph 18.4 mph N/A   Scattered Clouds
10:53 AM 46.9 °F - 25.0 °F 42% 30.06 in 10.0 mi West 13.8 mph - N/A   Scattered Clouds
11:53 AM 48.9 °F - 25.0 °F 39% 30.03 in 10.0 mi West 9.2 mph - N/A   Scattered Clouds
12:53 PM 50.0 °F - 23.0 °F 35% 30.00 in 10.0 mi West 12.7 mph 18.4 mph N/A   Partly Cloudy
1:53 PM 50.0 °F - 21.9 °F 33% 29.98 in 10.0 mi Variable 6.9 mph - N/A   Scattered Clouds
2:53 PM 51.1 °F - 21.0 °F 31% 29.96 in 10.0 mi West 9.2 mph - N/A   Clear
3:53 PM 50.0 °F - 21.0 °F 32% 29.96 in 10.0 mi SW 9.2 mph - N/A   Overcast
4:53 PM 48.0 °F - 21.9 °F 36% 29.96 in 10.0 mi SW 5.8 mph - N/A   Overcast
5:53 PM 48.0 °F - 25.0 °F 41% 29.96 in 10.0 mi WSW 4.6 mph - N/A   Overcast
6:53 PM 46.9 °F - 26.1 °F 44% 29.95 in 10.0 mi SW 5.8 mph - N/A   Overcast
7:53 PM 48.0 °F - 27.0 °F 44% 29.94 in 10.0 mi SW 9.2 mph - N/A   Overcast
8:53 PM 48.0 °F - 27.0 °F 44% 29.92 in 10.0 mi SW 10.4 mph - N/A   Overcast
9:53 PM 46.9 °F - 28.0 °F 48% 29.91 in 10.0 mi SW 10.4 mph - N/A   Overcast
10:53 PM 48.0 °F - 28.9 °F 48% 29.89 in 10.0 mi SSW 9.2 mph - N/A   Mostly Cloudy
11:53 PM 48.0 °F - 28.9 °F 48% 29.89 in 10.0 mi SW 10.4 mph - N/A   Overcast